[[{"header":{"parameterUnit":"m.s-1","parameterCategory":1,"la1":30.2991,"la2":30.254,"lo1":-89.0895,"lo2":-89.0444,"dy":0.0017,"dx":0.0017,"nx":28,"ny":28,"refTime":"2023-09-25T03:00:00:Z","depth":0,"parameterNumber":2,"parameterNumberName":"U-component_of_WINDS"},"data":[0,0,0,0,0,0,0,0,0,0,0,0,0,0,0,0,0,0,0,0,0,0,0,0,0,0,0,0,0,0,0,0,0,0,0,0,0,0,0,0,0,0,0,0,0,0,0,0,0,0,0,0,0,0,0,0,0,0,-1.0012,-1.0012,0,-1.0007,-1.0007,-1.0007,-0.9936,-0.9935,-0.9933,-0.9931,-0.9929,-0.993,-0.9932,0,0,0,0,0,0,0,0,0,0,0,0,0,-0.996,-0.9962,-1.0012,-1.0012,-1.0012,-1.0007,-1.0007,-1.0007,-0.9937,-0.9934,-0.9932,-0.993,-0.9928,-0.993,-0.9932,0,0,0,0,0,0,0,0,0,0,0,0,0,-0.9972,-0.9962,-1.0012,-0.9976,-0.9973,-1.0007,-1.0007,-1.0007,-0.9937,-0.9934,-0.9932,-0.9929,-0.9927,-0.993,-0.9932,-1.0001,0,0,-0.994,-0.9941,0,0,0,0,0,0,0,0,-0.9971,-0.9974,-0.9981,-0.9979,-0.9975,-0.997,-0.9988,-1.0005,-0.9938,-0.9951,-0.9931,-0.9928,-0.9945,-0.9945,-0.9951,-1.0001,-1.0001,-0.994,-0.9941,-0.9942,-0.9943,0,0,0,0,0,0,0,-0.9971,-0.9974,-1.001,-0.9982,-0.9978,-0.996,-0.9959,-0.9991,-0.9963,-0.9949,-0.9944,-0.9945,-0.9942,-0.9948,-0.995,-1.0001,-0.994,-0.9942,-0.9943,-0.9944,-1.0107,-1.0109,0,0,0,0,0,0,-0.9975,-0.9974,-1.001,-1.001,-0.9966,-0.9963,-0.9962,-0.9974,-0.9962,-0.9958,-0.9947,-0.9941,-0.9946,-0.9947,-0.995,-1.0029,-0.9942,-0.9945,-0.9946,-1.0104,-1.0107,-1.011,0,0,0,0,0,0,-0.9974,-0.9979,-1.001,-0.999,-0.9993,-0.9967,-0.9981,-0.9975,-0.9981,-0.996,-0.9955,-0.9958,-0.9943,-0.9946,-0.9988,-1.0028,-0.9946,-0.9948,-1.01,-1.0105,-1.0109,-1.0189,0,0,0,0,0,0,-0.9973,-0.9979,-1.0005,-0.9991,-0.9994,-1.005,-0.9984,-0.9977,-0.9986,-0.9978,-0.997,-0.9966,-0.9942,-0.9985,-0.9991,-1.003,-0.995,-1.0097,-1.0102,-1.0107,-1.0183,-1.0195,-1.0206,0,0,0,0,0,-0.9971,-1.0029,-1.0007,-1.0011,-1.0026,-1.0052,-1.0054,-1.0024,-0.9989,-1.0015,-1.0001,-0.9966,-1.0022,-0.999,-0.9996,-1.0036,-1.0094,-1.0101,-1.0107,-1.0177,-1.0193,-1.0206,0,0,0,0,0,0,-1.0049,-1.0026,-1.0002,-1.0056,-1.0056,-1.004,-1.0072,-1.0042,-1.0053,-1.0045,-1.0009,-1.0007,-1.0055,-1.005,-1.0014,-1.0102,-1.0052,-1.006,-1.0104,-1.0118,-1.013,-1.013,-0.9952,0,0,0,0,0,-1.0072,-1.0094,-1.0073,-1.0124,-1.0125,-1.0099,-1.0109,-1.0085,-1.0084,-1.0084,-1.0074,-1.0075,-1.0092,-1.0105,-1.012,-1.0181,-1.0178,-1.0211,-1.0223,-1.0233,-1.0241,-1.0271,-1.0286,-1.0131,-1.0131,-1.0131,0,0,-1.0121,-1.0111,-1.0128,-1.0139,-1.0136,-1.016,-1.0099,-1.0128,-1.0145,-1.0089,-1.0128,-1.012,-1.0118,-1.017,-1.0192,-1.0167,-1.0282,-1.0241,-1.0249,-1.0251,-1.0279,-1.0294,-1.0307,-1.0136,-1.0135,-1.0134,0,0,-1.0222,-1.0217,-1.0258,-1.0256,-1.0252,-1.0233,-1.0243,-1.0231,-1.0223,-1.0261,-1.0219,-1.0239,-1.0271,-1.0271,-1.0275,-1.0374,-1.0342,-1.038,-1.0442,-1.0472,-1.0484,-1.0495,-1.0529,-1.0542,-1.0387,-1.0387,-1.0387,0,-1.0284,-1.0317,-1.0283,-1.0313,-1.0319,-1.0268,-1.0308,-1.0308,-1.031,-1.0316,-1.0287,-1.0324,-1.0319,-1.037,-1.0394,-1.0399,-1.0409,-1.0381,-1.0485,-1.0495,-1.0505,-1.0537,-1.0551,-1.0392,-1.0391,-1.0391,-1.039,0,-1.0393,-1.0416,-1.045,-1.0451,-1.046,-1.0496,-1.0467,-1.0481,-1.0456,-1.0441,-1.048,-1.0472,-1.0484,-1.0494,-1.0471,-1.0541,-1.0525,-1.0492,-1.0441,-1.0525,-1.0555,-1.0567,-1.0399,-1.0397,-1.0396,-1.0394,0,0,-1.0545,-1.0524,-1.0537,-1.0536,-1.0527,-1.0545,-1.0578,-1.0588,-1.06,-1.0603,-1.0629,-1.0656,-1.0624,-1.0629,-1.0605,-1.0632,-1.0709,-1.0594,-1.0594,-1.0616,-1.0785,-1.081,-1.0825,-1.0687,-1.069,-1.0691,-1.0784,0,-1.0642,-1.0695,-1.0664,-1.0723,-1.0744,-1.0694,-1.0723,-1.072,-1.0706,-1.0722,-1.0707,-1.0726,-1.0683,-1.0685,-1.0709,-1.0695,-1.0743,-1.0688,-1.0712,-1.0713,-1.0714,-1.0841,-1.0868,-1.0956,-1.0796,-1.0798,-1.0799,0,-1.0763,-1.0768,-1.0829,-1.0813,-1.0821,-1.0847,-1.0853,-1.0869,-1.0865,-1.0852,-1.0857,-1.0826,-1.0857,-1.0806,-1.0848,-1.0811,-1.0819,-1.0813,-1.0816,-1.0817,-1.0762,-1.0845,-1.0984,-1.0997,-1.0818,-1.0816,-1.0815,0,-1.0866,-1.0889,-1.0928,-1.0929,-1.0912,-1.0931,-1.0926,-1.0918,-1.0926,-1.0932,-1.0936,-1.0946,-1.0951,-1.0959,-1.0932,-1.0898,-1.0977,-1.0924,-1.0967,-1.0968,-1.0987,-1.0986,-1.1128,-1.0992,-1.0992,-1.0992,-1.0991,0,-1.0978,-1.1017,-1.0974,-1.0998,-1.1039,-1.1003,-1.1045,-1.1034,-1.1027,-1.1048,-1.1006,-1.1027,-1.0989,-1.1006,-1.0984,-1.1022,-1.1025,-1.1016,-1.101,-1.1019,-1.1021,-1.1024,-1.1017,-1.0995,-1.0994,-1.0994,-1.0993,0,-1.1102,-1.1075,-1.1113,-1.1093,-1.1089,-1.1121,-1.1104,-1.1125,-1.1107,-1.1134,-1.1138,-1.1111,-1.1128,-1.1101,-1.1116,-1.1101,-1.1152,-1.1137,-1.1154,-1.1149,-1.1194,-1.119,-1.1343,-1.1361,-1.1214,-1.1215,-1.1217,0,-1.1175,-1.1203,-1.1186,-1.1196,-1.1192,-1.1209,-1.1216,-1.1181,-1.119,-1.1186,-1.1207,-1.1221,-1.1229,-1.1259,-1.1241,-1.1251,-1.1236,-1.1289,-1.1237,-1.1246,-1.1236,-1.1235,-1.1237,-1.13,-1.1302,-1.1303,-1.1304,0,-1.1308,-1.1292,-1.1303,-1.1309,-1.1318,-1.1322,-1.1322,-1.1333,-1.1296,-1.1308,-1.1324,-1.1331,-1.1344,-1.1358,-1.1363,-1.1358,-1.1325,-1.132,-1.1331,-1.1341,-1.135,-1.1345,-1.1182,-1.1317,-1.1316,-1.1315,-1.1314,-1.1314,-1.1408,-1.143,-1.1421,-1.1434,-1.143,-1.1431,-1.1449,-1.1433,-1.1445,-1.1453,-1.1431,-1.1452,-1.1445,-1.1449,-1.1447,-1.1463,-1.144,-1.1455,-1.1459,-1.1463,-1.147,-1.1347,-1.1464,-1.1463,-1.1463,-1.1463,-1.1462,0,-1.1538,-1.1529,-1.1541,-1.1542,-1.1552,-1.1519,-1.1517,-1.1528,-1.1547,-1.1543,-1.1551,-1.1569,-1.1582,-1.1564,-1.1573,-1.1589,-1.1574,-1.1593,-1.1591,-1.159,-1.149,-1.148,-1.1605,-1.1605,-1.1605,-1.1605,-1.1605,-1.1605,-1.1607,-1.1642,-1.1625,-1.1657,-1.1648,-1.1667,-1.1669,-1.1669,-1.1665,-1.1687,-1.1696,-1.1684,-1.1674,-1.1682,-1.1692,-1.1686,-1.1691,-1.1715,-1.1705,-1.1612,-1.1598,-1.1584,-1.1575,-1.1717,-1.1717,-1.1803,-1.1804,-1.1804]},{"header":{"parameterUnit":"m.s-1","parameterCategory":1,"la1":30.2991,"la2":30.254,"lo1":-89.0895,"lo2":-89.0444,"dy":0.0017,"dx":0.0017,"nx":28,"ny":28,"refTime":"2023-09-25T03:00:00:Z","depth":0,"parameterNumber":3,"parameterNumberName":"V-component_of_WINDS"},"data":[0,0,0,0,0,0,0,0,0,0,0,0,0,0,0,0,0,0,0,0,0,0,0,0,0,0,0,0,0,0,0,0,0,0,0,0,0,0,0,0,0,0,0,0,0,0,0,0,0,0,0,0,0,0,0,0,0,0,-2.4766,-2.4766,0,-2.4789,-2.4789,-2.479,-2.4779,-2.4778,-2.4777,-2.4777,-2.4798,-2.4799,-2.48,0,0,0,0,0,0,0,0,0,0,0,0,0,-2.4708,-2.4709,-2.4766,-2.4766,-2.4766,-2.4789,-2.4789,-2.479,-2.4779,-2.4778,-2.4777,-2.4777,-2.4798,-2.4799,-2.48,0,0,0,0,0,0,0,0,0,0,0,0,0,-2.4732,-2.471,-2.4766,-2.4764,-2.4764,-2.4789,-2.4789,-2.479,-2.4779,-2.4778,-2.4777,-2.4776,-2.4797,-2.4799,-2.4801,-2.4828,0,0,-2.4806,-2.4806,0,0,0,0,0,0,0,0,-2.4731,-2.4734,-2.4764,-2.4764,-2.4764,-2.478,-2.4777,-2.4803,-2.4779,-2.4773,-2.4777,-2.4776,-2.4793,-2.4795,-2.4801,-2.4829,-2.483,-2.4806,-2.4807,-2.4807,-2.4808,0,0,0,0,0,0,0,-2.4729,-2.4733,-2.4775,-2.4764,-2.4764,-2.476,-2.4763,-2.4782,-2.4787,-2.4773,-2.4773,-2.4776,-2.4792,-2.4799,-2.4801,-2.4831,-2.4806,-2.4807,-2.4808,-2.4809,-2.4881,-2.4882,0,0,0,0,0,0,-2.4728,-2.4732,-2.4774,-2.4775,-2.4745,-2.4762,-2.4765,-2.4776,-2.4787,-2.4788,-2.4776,-2.4775,-2.4797,-2.4799,-2.4802,-2.4834,-2.4807,-2.4809,-2.481,-2.488,-2.4882,-2.4883,0,0,0,0,0,0,-2.4727,-2.4732,-2.4773,-2.4754,-2.4759,-2.4764,-2.4776,-2.4777,-2.4783,-2.4789,-2.479,-2.4782,-2.4796,-2.48,-2.4822,-2.4835,-2.481,-2.4811,-2.4879,-2.4881,-2.4882,-2.4899,0,0,0,0,0,0,-2.4725,-2.4732,-2.4743,-2.4754,-2.476,-2.4793,-2.4777,-2.4778,-2.4787,-2.4785,-2.4795,-2.4796,-2.4796,-2.4819,-2.4823,-2.4836,-2.4813,-2.4878,-2.488,-2.4882,-2.4897,-2.4901,-2.4904,0,0,0,0,0,-2.4723,-2.4747,-2.4744,-2.4749,-2.4774,-2.4794,-2.4797,-2.4797,-2.4788,-2.4798,-2.4802,-2.4796,-2.4833,-2.4822,-2.4826,-2.484,-2.4877,-2.4879,-2.4881,-2.4896,-2.49,-2.4904,0,0,0,0,0,0,-2.4737,-2.4748,-2.4745,-2.4773,-2.4783,-2.4792,-2.4806,-2.4802,-2.4814,-2.4812,-2.4811,-2.4813,-2.4836,-2.484,-2.4828,-2.4867,-2.4853,-2.4856,-2.4863,-2.4867,-2.487,-2.4868,-2.4814,0,0,0,0,0,-2.4743,-2.4759,-2.4768,-2.4792,-2.4797,-2.4801,-2.4809,-2.4809,-2.4818,-2.4822,-2.4828,-2.4837,-2.485,-2.4859,-2.4872,-2.4898,-2.4899,-2.491,-2.4913,-2.4916,-2.4918,-2.4931,-2.4935,-2.4889,-2.4889,-2.4889,0,0,-2.4756,-2.4764,-2.4774,-2.4795,-2.4802,-2.4818,-2.4804,-2.4822,-2.4833,-2.4825,-2.4846,-2.485,-2.486,-2.4884,-2.4894,-2.4888,-2.4931,-2.4918,-2.492,-2.4921,-2.4933,-2.4937,-2.4941,-2.4891,-2.4891,-2.489,0,0,-2.4787,-2.4796,-2.4815,-2.4823,-2.4835,-2.4837,-2.4842,-2.4852,-2.4855,-2.4876,-2.487,-2.4883,-2.4907,-2.4913,-2.492,-2.4953,-2.4947,-2.4957,-2.4974,-2.4986,-2.499,-2.4993,-2.5003,-2.5007,-2.496,-2.496,-2.496,0,-2.4801,-2.4825,-2.4826,-2.4844,-2.4852,-2.4846,-2.4865,-2.4873,-2.4888,-2.4893,-2.4886,-2.4915,-2.4921,-2.4946,-2.4954,-2.496,-2.4964,-2.4955,-2.4989,-2.4992,-2.4995,-2.5005,-2.5009,-2.4961,-2.4961,-2.4961,-2.496,0,-2.4841,-2.4858,-2.4872,-2.4888,-2.4898,-2.4916,-2.4918,-2.4928,-2.4926,-2.4929,-2.495,-2.4957,-2.4971,-2.4977,-2.4975,-2.5001,-2.4997,-2.499,-2.4976,-2.5001,-2.501,-2.5014,-2.4962,-2.4962,-2.4962,-2.4961,0,0,-2.4881,-2.4896,-2.4901,-2.4907,-2.492,-2.4932,-2.495,-2.4963,-2.4971,-2.4982,-2.4995,-2.5015,-2.5009,-2.5016,-2.5015,-2.5026,-2.505,-2.5017,-2.5017,-2.5022,-2.5077,-2.5081,-2.5086,-2.5046,-2.5047,-2.5048,-2.5075,0,-2.4912,-2.4943,-2.4944,-2.4972,-2.4987,-2.4981,-2.4996,-2.5004,-2.5007,-2.5019,-2.5022,-2.5036,-2.5027,-2.5031,-2.5042,-2.5045,-2.506,-2.5043,-2.5057,-2.5058,-2.5054,-2.509,-2.5095,-2.5121,-2.5079,-2.508,-2.508,0,-2.4952,-2.4964,-2.4994,-2.5003,-2.5009,-2.5022,-2.5034,-2.5047,-2.5055,-2.5057,-2.5065,-2.5062,-2.5078,-2.5065,-2.5087,-2.5075,-2.5081,-2.5083,-2.5084,-2.5084,-2.507,-2.509,-2.513,-2.5133,-2.5086,-2.5086,-2.5085,0,-2.4976,-2.4999,-2.502,-2.5026,-2.5037,-2.5046,-2.5052,-2.506,-2.5068,-2.5078,-2.5083,-2.5095,-2.5101,-2.511,-2.511,-2.5101,-2.5132,-2.5119,-2.5132,-2.5132,-2.5138,-2.5137,-2.5177,-2.5144,-2.5144,-2.5144,-2.5144,0,-2.5009,-2.5027,-2.5031,-2.5043,-2.5063,-2.5063,-2.5082,-2.5086,-2.5093,-2.5106,-2.5102,-2.5113,-2.5113,-2.5124,-2.5124,-2.5141,-2.5145,-2.5145,-2.5144,-2.5144,-2.5144,-2.5147,-2.5145,-2.5145,-2.5145,-2.5144,-2.5144,0,-2.5039,-2.5042,-2.5064,-2.5073,-2.5076,-2.5089,-2.5097,-2.5108,-2.511,-2.5126,-2.5129,-2.5133,-2.5146,-2.5147,-2.5162,-2.5162,-2.5182,-2.5181,-2.5179,-2.5179,-2.5191,-2.5189,-2.5233,-2.5238,-2.5203,-2.5204,-2.5204,0,-2.5059,-2.5073,-2.5083,-2.5092,-2.5097,-2.5111,-2.5119,-2.5119,-2.5128,-2.5139,-2.5148,-2.5161,-2.5171,-2.5192,-2.5195,-2.5206,-2.5204,-2.5218,-2.5205,-2.5204,-2.5202,-2.5201,-2.5201,-2.522,-2.5221,-2.5221,-2.5221,0,-2.5094,-2.5095,-2.5108,-2.512,-2.513,-2.514,-2.5149,-2.5156,-2.5157,-2.5166,-2.518,-2.5188,-2.5203,-2.5215,-2.5226,-2.523,-2.5225,-2.5226,-2.5229,-2.5228,-2.5227,-2.5226,-2.5185,-2.5224,-2.5224,-2.5224,-2.5224,-2.5224,-2.5119,-2.513,-2.5139,-2.5153,-2.516,-2.5168,-2.5179,-2.5183,-2.5194,-2.5207,-2.5207,-2.5221,-2.5228,-2.5243,-2.5248,-2.5258,-2.5253,-2.5258,-2.5259,-2.526,-2.5261,-2.5226,-2.526,-2.526,-2.526,-2.526,-2.526,0,-2.5153,-2.5158,-2.5171,-2.5183,-2.5194,-2.519,-2.5199,-2.5208,-2.5221,-2.5228,-2.5238,-2.5253,-2.5265,-2.5269,-2.528,-2.5288,-2.5286,-2.529,-2.5289,-2.529,-2.5265,-2.5261,-2.5292,-2.5292,-2.5292,-2.5292,-2.5292,-2.5292,-2.5171,-2.519,-2.5192,-2.5213,-2.5218,-2.5233,-2.5238,-2.5246,-2.5252,-2.5269,-2.5278,-2.5281,-2.5287,-2.5299,-2.5309,-2.531,-2.5313,-2.5318,-2.5318,-2.5295,-2.5292,-2.5289,-2.5284,-2.532,-2.532,-2.5342,-2.5342,-2.5342]}]]